owner,sensor,date,latitude,longitude,vertical_datum,direction_of_sea_water_velocity,sea_water_speed,upward_sea_water_velocity,qcFlag 
TABS,ioos:station:wmo:42051:1,2004-08-01T00:00:00Z,29.6350,-93.6417,2.0,208.3574843,14.29547131,-99999.0,'11111222,11111222,99999999' 
TABS,ioos:station:wmo:42051:1,2004-08-01T00:30:00Z,29.6350,-93.6417,2.0,198.9339911,14.51540561,-99999.0,'11111222,11111222,99999999' 
TABS,ioos:station:wmo:42051:1,2004-08-01T01:00:00Z,29.6350,-93.6417,2.0,202.8780827,10.57164604,-99999.0,'11111222,11111222,99999999' 
TABS,ioos:station:wmo:42051:1,2004-08-01T01:30:00Z,29.6350,-93.6417,2.0,223.8683195,7.878705477,-99999.0,'11133222,11111222,99999999' 
TABS,ioos:station:wmo:42051:1,2004-08-01T02:00:00Z,29.6350,-93.6417,2.0,245.8467168,4.887903436,-99999.0,'11133222,11111222,99999999' 
TABS,ioos:station:wmo:42051:1,2004-08-01T02:30:00Z,29.6350,-93.6417,2.0,284.9246564,5.164203714,-99999.0,'11133222,11111222,99999999' 
TABS,ioos:station:wmo:42051:1,2004-08-01T03:00:00Z,29.6350,-93.6417,2.0,345.4678847,9.803657481,-99999.0,'11133222,11111222,99999999' 
TABS,ioos:station:wmo:42051:1,2004-08-01T03:30:00Z,29.6350,-93.6417,2.0,328.130478,10.30320824,-99999.0,'11111222,11111222,99999999' 
TABS,ioos:station:wmo:42051:1,2004-08-01T04:00:00Z,29.6350,-93.6417,2.0,330.3086192,9.347261631,-99999.0,'11133222,11111222,99999999' 
TABS,ioos:station:wmo:42051:1,2004-08-01T04:30:00Z,29.6350,-93.6417,2.0,337.4404567,9.540005241,-99999.0,'11133222,11111222,99999999' 
TABS,ioos:station:wmo:42051:1,2004-08-01T05:00:00Z,29.6350,-93.6417,2.0,353.8310648,15.16783768,-99999.0,'11111222,11111222,99999999' 
TABS,ioos:station:wmo:42051:1,2004-08-01T05:30:00Z,29.6350,-93.6417,2.0,347.688545,16.60180713,-99999.0,'11111222,11111222,99999999' 
TABS,ioos:station:wmo:42051:1,2004-08-01T06:00:00Z,29.6350,-93.6417,2.0,3.382452766,14.91598136,-99999.0,'11111222,11111222,99999999' 
TABS,ioos:station:wmo:42051:1,2004-08-01T06:30:00Z,29.6350,-93.6417,2.0,1.043670294,17.02282292,-99999.0,'11111222,11111222,99999999' 
TABS,ioos:station:wmo:42051:1,2004-08-01T07:00:00Z,29.6350,-93.6417,2.0,357.4970765,10.9904868,-99999.0,'11111222,11111222,99999999' 
TABS,ioos:station:wmo:42051:1,2004-08-01T07:30:00Z,29.6350,-93.6417,2.0,340.3276284,8.198536455,-99999.0,'11133222,11111222,99999999' 
TABS,ioos:station:wmo:42051:1,2004-08-01T08:00:00Z,29.6350,-93.6417,2.0,322.9027139,7.046055634,-99999.0,'11133222,11111222,99999999' 
TABS,ioos:station:wmo:42051:1,2004-08-01T08:30:00Z,29.6350,-93.6417,2.0,314.7044716,4.108345166,-99999.0,'11133222,11111222,99999999' 
TABS,ioos:station:wmo:42051:1,2004-08-01T09:00:00Z,29.6350,-93.6417,2.0,295.4334808,4.074911042,-99999.0,'11133222,11111222,99999999' 
TABS,ioos:station:wmo:42051:1,2004-08-01T09:30:00Z,29.6350,-93.6417,2.0,231.3023149,2.383212118,-99999.0,'11133222,11111222,99999999' 
TABS,ioos:station:wmo:42051:1,2004-08-01T10:00:00Z,29.6350,-93.6417,2.0,207.5306297,5.040813426,-99999.0,'11133222,11111222,99999999' 
TABS,ioos:station:wmo:42051:1,2004-08-01T10:30:00Z,29.6350,-93.6417,2.0,183.7238388,5.080728294,-99999.0,'11133222,11111222,99999999' 
TABS,ioos:station:wmo:42051:1,2004-08-01T11:00:00Z,29.6350,-93.6417,2.0,219.9766569,4.280292046,-99999.0,'11133222,11111222,99999999' 
TABS,ioos:station:wmo:42051:1,2004-08-01T11:30:00Z,29.6350,-93.6417,2.0,233.285462,11.77604348,-99999.0,'11111222,11111222,99999999' 
TABS,ioos:station:wmo:42051:1,2004-08-01T12:00:00Z,29.6350,-93.6417,2.0,226.7486263,18.53483207,-99999.0,'11111222,11111222,99999999' 
TABS,ioos:station:wmo:42051:1,2004-08-01T12:30:00Z,29.6350,-93.6417,2.0,222.5948105,18.70530673,-99999.0,'11111222,11111222,99999999' 
TABS,ioos:station:wmo:42051:1,2004-08-01T13:00:00Z,29.6350,-93.6417,2.0,228.2077037,20.72241781,-99999.0,'11111222,11111222,99999999' 
TABS,ioos:station:wmo:42051:1,2004-08-01T13:30:00Z,29.6350,-93.6417,2.0,229.0546513,17.89925417,-99999.0,'11111222,11111222,99999999' 
TABS,ioos:station:wmo:42051:1,2004-08-01T14:00:00Z,29.6350,-93.6417,2.0,228.4807753,16.18725733,-99999.0,'11111222,11111222,99999999' 
TABS,ioos:station:wmo:42051:1,2004-08-01T14:30:00Z,29.6350,-93.6417,2.0,257.5365722,21.73210758,-99999.0,'11111222,11111222,99999999' 
TABS,ioos:station:wmo:42051:1,2004-08-01T15:00:00Z,29.6350,-93.6417,2.0,262.2144571,23.25433508,-99999.0,'11111222,11111222,99999999' 
TABS,ioos:station:wmo:42051:1,2004-08-01T15:30:00Z,29.6350,-93.6417,2.0,275.556946,17.76346813,-99999.0,'11111222,11111222,99999999' 
TABS,ioos:station:wmo:42051:1,2004-08-01T16:00:00Z,29.6350,-93.6417,2.0,281.7116561,28.27867925,-99999.0,'11111222,11111222,99999999' 
TABS,ioos:station:wmo:42051:1,2004-08-01T16:30:00Z,29.6350,-93.6417,2.0,291.3204251,24.31394867,-99999.0,'11111222,11111222,99999999' 
TABS,ioos:station:wmo:42051:1,2004-08-01T17:00:00Z,29.6350,-93.6417,2.0,301.6280658,20.42342283,-99999.0,'11111222,11111222,99999999' 
TABS,ioos:station:wmo:42051:1,2004-08-01T17:30:00Z,29.6350,-93.6417,2.0,299.8554743,21.27323671,-99999.0,'11111222,11111222,99999999' 
TABS,ioos:station:wmo:42051:1,2004-08-01T18:00:00Z,29.6350,-93.6417,2.0,301.7420533,23.4940418,-99999.0,'11111222,11111222,99999999' 
TABS,ioos:station:wmo:42051:1,2004-08-01T18:30:00Z,29.6350,-93.6417,2.0,304.6780358,20.75719152,-99999.0,'11111222,11111222,99999999' 
TABS,ioos:station:wmo:42051:1,2004-08-01T19:00:00Z,29.6350,-93.6417,2.0,309.3198321,21.43158417,-99999.0,'11111222,11111222,99999999' 
TABS,ioos:station:wmo:42051:1,2004-08-01T19:30:00Z,29.6350,-93.6417,2.0,306.7212839,20.77207019,-99999.0,'11111222,11111222,99999999' 
TABS,ioos:station:wmo:42051:1,2004-08-01T20:00:00Z,29.6350,-93.6417,2.0,306.807391,21.88201316,-99999.0,'11111222,11111222,99999999' 
TABS,ioos:station:wmo:42051:1,2004-08-01T20:30:00Z,29.6350,-93.6417,2.0,301.3024779,23.23160347,-99999.0,'11111222,11111222,99999999' 
TABS,ioos:station:wmo:42051:1,2004-08-01T21:00:00Z,29.6350,-93.6417,2.0,315.3404894,16.67387178,-99999.0,'11111222,11111222,99999999' 
TABS,ioos:station:wmo:42051:1,2004-08-01T21:30:00Z,29.6350,-93.6417,2.0,316.2599596,14.79624952,-99999.0,'11111222,11111222,99999999' 
TABS,ioos:station:wmo:42051:1,2004-08-01T22:00:00Z,29.6350,-93.6417,2.0,304.415117,19.51591402,-99999.0,'11111222,11111222,99999999' 
TABS,ioos:station:wmo:42051:1,2004-08-01T22:30:00Z,29.6350,-93.6417,2.0,303.7515087,10.4034081,-99999.0,'11111222,11111222,99999999' 
TABS,ioos:station:wmo:42051:1,2004-08-01T23:00:00Z,29.6350,-93.6417,2.0,310.8283142,10.6915013,-99999.0,'11111222,11111222,99999999' 
TABS,ioos:station:wmo:42051:1,2004-08-01T23:30:00Z,29.6350,-93.6417,2.0,301.166893,6.299182487,-99999.0,'11133222,11111222,99999999' 
TABS,ioos:station:wmo:42051:1,2004-08-02T00:00:00Z,29.6350,-93.6417,2.0,292.0976771,6.831822597,-99999.0,'11133222,11111222,99999999' 
TABS,ioos:station:wmo:42051:1,2004-08-02T00:30:00Z,29.6350,-93.6417,2.0,299.5825934,6.117417756,-99999.0,'11133222,11111222,99999999' 
TABS,ioos:station:wmo:42051:1,2004-08-02T01:00:00Z,29.6350,-93.6417,2.0,284.9469128,7.327926037,-99999.0,'11133222,11111222,99999999' 
TABS,ioos:station:wmo:42051:1,2004-08-02T01:30:00Z,29.6350,-93.6417,2.0,299.7452327,4.837354649,-99999.0,'11133222,11111222,99999999' 
TABS,ioos:station:wmo:42051:1,2004-08-02T02:00:00Z,29.6350,-93.6417,2.0,256.5136832,4.545327271,-99999.0,'11133222,11111222,99999999' 
TABS,ioos:station:wmo:42051:1,2004-08-02T02:30:00Z,29.6350,-93.6417,2.0,247.7281891,4.300848753,-99999.0,'11133222,11111222,99999999' 
TABS,ioos:station:wmo:42051:1,2004-08-02T03:00:00Z,29.6350,-93.6417,2.0,282.576959,7.807329889,-99999.0,'11133222,11111222,99999999' 
TABS,ioos:station:wmo:42051:1,2004-08-02T03:30:00Z,29.6350,-93.6417,2.0,311.6834143,6.721703653,-99999.0,'11133222,11111222,99999999' 
TABS,ioos:station:wmo:42051:1,2004-08-02T04:00:00Z,29.6350,-93.6417,2.0,323.0261305,10.9900182,-99999.0,'11111222,11111222,99999999' 
TABS,ioos:station:wmo:42051:1,2004-08-02T04:30:00Z,29.6350,-93.6417,2.0,305.6262856,15.84573444,-99999.0,'11111222,11111222,99999999' 
TABS,ioos:station:wmo:42051:1,2004-08-02T05:00:00Z,29.6350,-93.6417,2.0,302.2786543,19.13741884,-99999.0,'11111222,11111222,99999999' 
TABS,ioos:station:wmo:42051:1,2004-08-02T05:30:00Z,29.6350,-93.6417,2.0,292.5557338,12.98308515,-99999.0,'11111222,11111222,99999999' 
TABS,ioos:station:wmo:42051:1,2004-08-02T06:00:00Z,29.6350,-93.6417,2.0,305.9347732,13.59781232,-99999.0,'11111222,11111222,99999999' 
TABS,ioos:station:wmo:42051:1,2004-08-02T06:30:00Z,29.6350,-93.6417,2.0,305.5280788,13.4056779,-99999.0,'11111222,11111222,99999999' 
TABS,ioos:station:wmo:42051:1,2004-08-02T07:00:00Z,29.6350,-93.6417,2.0,302.0792441,13.21818444,-99999.0,'11111222,11111222,99999999' 
TABS,ioos:station:wmo:42051:1,2004-08-02T07:30:00Z,29.6350,-93.6417,2.0,301.9016527,21.59113244,-99999.0,'11111222,11111222,99999999' 
TABS,ioos:station:wmo:42051:1,2004-08-02T08:00:00Z,29.6350,-93.6417,2.0,283.951022,24.34817858,-99999.0,'11111222,11111222,99999999' 
TABS,ioos:station:wmo:42051:1,2004-08-02T08:30:00Z,29.6350,-93.6417,2.0,286.3726721,22.49204304,-99999.0,'11111222,11111222,99999999' 
TABS,ioos:station:wmo:42051:1,2004-08-02T09:00:00Z,29.6350,-93.6417,2.0,279.1055618,25.84566695,-99999.0,'11111222,11111222,99999999' 
TABS,ioos:station:wmo:42051:1,2004-08-02T09:30:00Z,29.6350,-93.6417,2.0,277.3330216,28.75516128,-99999.0,'11111222,11111222,99999999' 
TABS,ioos:station:wmo:42051:1,2004-08-02T10:00:00Z,29.6350,-93.6417,2.0,281.5907275,31.25736393,-99999.0,'11111222,11111222,99999999' 
TABS,ioos:station:wmo:42051:1,2004-08-02T10:30:00Z,29.6350,-93.6417,2.0,278.119527,29.5259513,-99999.0,'11111222,11111222,99999999' 
TABS,ioos:station:wmo:42051:1,2004-08-02T11:00:00Z,29.6350,-93.6417,2.0,270.8203384,27.95286211,-99999.0,'11111222,11111222,99999999' 
TABS,ioos:station:wmo:42051:1,2004-08-02T11:30:00Z,29.6350,-93.6417,2.0,267.0090749,25.6849781,-99999.0,'11111222,11111222,99999999' 
TABS,ioos:station:wmo:42051:1,2004-08-02T12:00:00Z,29.6350,-93.6417,2.0,264.0458885,26.03040722,-99999.0,'11111222,11111222,99999999' 
TABS,ioos:station:wmo:42051:1,2004-08-02T12:30:00Z,29.6350,-93.6417,2.0,276.1341651,24.5203752,-99999.0,'11111222,11111222,99999999' 
TABS,ioos:station:wmo:42051:1,2004-08-02T13:00:00Z,29.6350,-93.6417,2.0,280.108625,24.50029388,-99999.0,'11111222,11111222,99999999' 
TABS,ioos:station:wmo:42051:1,2004-08-02T13:30:00Z,29.6350,-93.6417,2.0,285.1895901,30.49532751,-99999.0,'11111222,11111222,99999999' 
TABS,ioos:station:wmo:42051:1,2004-08-02T14:00:00Z,29.6350,-93.6417,2.0,288.0437907,34.70680769,-99999.0,'11111222,11111222,99999999' 
TABS,ioos:station:wmo:42051:1,2004-08-02T14:30:00Z,29.6350,-93.6417,2.0,284.6792878,31.57042287,-99999.0,'11111222,11111222,99999999' 
TABS,ioos:station:wmo:42051:1,2004-08-02T15:30:00Z,29.6350,-93.6417,2.0,276.642434,30.60541782,-99999.0,'11111222,11111222,99999999' 
TABS,ioos:station:wmo:42051:1,2004-08-02T16:00:00Z,29.6350,-93.6417,2.0,272.4985526,31.8903073,-99999.0,'11111222,11111222,99999999' 
TABS,ioos:station:wmo:42051:1,2004-08-02T16:30:00Z,29.6350,-93.6417,2.0,281.8040216,35.05117687,-99999.0,'11111222,11111222,99999999' 
TABS,ioos:station:wmo:42051:1,2004-08-02T17:00:00Z,29.6350,-93.6417,2.0,289.3616331,32.27526142,-99999.0,'11111222,11111222,99999999' 
TABS,ioos:station:wmo:42051:1,2004-08-02T17:30:00Z,29.6350,-93.6417,2.0,291.4865575,38.14054273,-99999.0,'11111222,11111222,99999999' 
TABS,ioos:station:wmo:42051:1,2004-08-02T18:00:00Z,29.6350,-93.6417,2.0,291.9004421,38.82152496,-99999.0,'11111222,11111222,99999999' 
TABS,ioos:station:wmo:42051:1,2004-08-02T18:30:00Z,29.6350,-93.6417,2.0,294.9293677,41.35281006,-99999.0,'11111222,11111222,99999999' 
TABS,ioos:station:wmo:42051:1,2004-08-02T19:00:00Z,29.6350,-93.6417,2.0,291.8937208,46.28833654,-99999.0,'11111222,11111222,99999999' 
TABS,ioos:station:wmo:42051:1,2004-08-02T19:30:00Z,29.6350,-93.6417,2.0,294.0738803,39.29803176,-99999.0,'11111222,11111222,99999999' 
TABS,ioos:station:wmo:42051:1,2004-08-02T20:00:00Z,29.6350,-93.6417,2.0,293.2257023,39.38142963,-99999.0,'11111222,11111222,99999999' 
TABS,ioos:station:wmo:42051:1,2004-08-02T20:30:00Z,29.6350,-93.6417,2.0,304.574062,27.15580417,-99999.0,'11111222,11111222,99999999' 
TABS,ioos:station:wmo:42051:1,2004-08-02T21:00:00Z,29.6350,-93.6417,2.0,308.1593415,18.04656754,-99999.0,'11111222,11111222,99999999' 
TABS,ioos:station:wmo:42051:1,2004-08-02T21:30:00Z,29.6350,-93.6417,2.0,295.0395369,18.64200097,-99999.0,'11111222,11111222,99999999' 
TABS,ioos:station:wmo:42051:1,2004-08-02T22:00:00Z,29.6350,-93.6417,2.0,291.7703372,13.53533524,-99999.0,'11111222,11111222,99999999' 
TABS,ioos:station:wmo:42051:1,2004-08-02T22:30:00Z,29.6350,-93.6417,2.0,292.9746786,14.42412216,-99999.0,'11111222,11111222,99999999' 
TABS,ioos:station:wmo:42051:1,2004-08-02T23:00:00Z,29.6350,-93.6417,2.0,282.5836273,18.26880675,-99999.0,'11111222,11111222,99999999' 
TABS,ioos:station:wmo:42051:1,2004-08-02T23:30:00Z,29.6350,-93.6417,2.0,276.0288548,15.42530389,-99999.0,'11111222,11111222,99999999' 
TABS,ioos:station:wmo:42051:1,2004-08-03T00:00:00Z,29.6350,-93.6417,2.0,254.1148216,14.28550664,-99999.0,'11111222,11111222,99999999' 
TABS,ioos:station:wmo:42051:1,2004-08-03T00:30:00Z,29.6350,-93.6417,2.0,256.0027252,17.65417231,-99999.0,'11111222,11111222,99999999' 
TABS,ioos:station:wmo:42051:1,2004-08-03T01:00:00Z,29.6350,-93.6417,2.0,254.959646,26.86009121,-99999.0,'11111222,11111222,99999999' 
TABS,ioos:station:wmo:42051:1,2004-08-03T01:30:00Z,29.6350,-93.6417,2.0,245.190746,28.45615048,-99999.0,'11111222,11111222,99999999' 
TABS,ioos:station:wmo:42051:1,2004-08-03T02:00:00Z,29.6350,-93.6417,2.0,252.475055,28.66017795,-99999.0,'11111222,11111222,99999999' 
TABS,ioos:station:wmo:42051:1,2004-08-03T02:30:00Z,29.6350,-93.6417,2.0,264.8642955,23.68506914,-99999.0,'11111222,11111222,99999999' 
TABS,ioos:station:wmo:42051:1,2004-08-03T03:00:00Z,29.6350,-93.6417,2.0,269.0953668,15.84197273,-99999.0,'11111222,11111222,99999999' 
TABS,ioos:station:wmo:42051:1,2004-08-03T03:30:00Z,29.6350,-93.6417,2.0,260.9136291,15.76784703,-99999.0,'11111222,11111222,99999999' 
TABS,ioos:station:wmo:42051:1,2004-08-03T04:00:00Z,29.6350,-93.6417,2.0,275.7062772,12.06980116,-99999.0,'11111222,11111222,99999999' 
TABS,ioos:station:wmo:42051:1,2004-08-03T04:30:00Z,29.6350,-93.6417,2.0,294.8968546,11.21192669,-99999.0,'11111222,11111222,99999999' 
TABS,ioos:station:wmo:42051:1,2004-08-03T05:00:00Z,29.6350,-93.6417,2.0,299.2073149,12.41890494,-99999.0,'11111222,11111222,99999999' 
TABS,ioos:station:wmo:42051:1,2004-08-03T05:30:00Z,29.6350,-93.6417,2.0,302.2573489,8.206582724,-99999.0,'11133222,11111222,99999999' 
TABS,ioos:station:wmo:42051:1,2004-08-03T06:00:00Z,29.6350,-93.6417,2.0,282.10551,11.58765723,-99999.0,'11111222,11111222,99999999' 
TABS,ioos:station:wmo:42051:1,2004-08-03T06:30:00Z,29.6350,-93.6417,2.0,264.7077058,11.70991033,-99999.0,'11111222,11111222,99999999' 
TABS,ioos:station:wmo:42051:1,2004-08-03T07:00:00Z,29.6350,-93.6417,2.0,258.8545103,11.58855038,-99999.0,'11111222,11111222,99999999' 
TABS,ioos:station:wmo:42051:1,2004-08-03T07:30:00Z,29.6350,-93.6417,2.0,233.3104885,16.48608201,-99999.0,'11111222,11111222,99999999' 
TABS,ioos:station:wmo:42051:1,2004-08-03T08:00:00Z,29.6350,-93.6417,2.0,230.4962291,20.15328509,-99999.0,'11111222,11111222,99999999' 
TABS,ioos:station:wmo:42051:1,2004-08-03T08:30:00Z,29.6350,-93.6417,2.0,235.4278465,21.44724924,-99999.0,'11111222,11111222,99999999' 
TABS,ioos:station:wmo:42051:1,2004-08-03T09:00:00Z,29.6350,-93.6417,2.0,229.1119035,23.86264864,-99999.0,'11111222,11111222,99999999' 
TABS,ioos:station:wmo:42051:1,2004-08-03T09:30:00Z,29.6350,-93.6417,2.0,225.5034009,28.15100886,-99999.0,'11111222,11111222,99999999' 
TABS,ioos:station:wmo:42051:1,2004-08-03T10:00:00Z,29.6350,-93.6417,2.0,225.25239,35.27082931,-99999.0,'11111222,11111222,99999999' 
TABS,ioos:station:wmo:42051:1,2004-08-03T10:30:00Z,29.6350,-93.6417,2.0,225.9478973,39.7377717,-99999.0,'11111222,11111222,99999999' 
TABS,ioos:station:wmo:42051:1,2004-08-03T11:00:00Z,29.6350,-93.6417,2.0,222.6568495,40.30342045,-99999.0,'11111222,11111222,99999999' 
TABS,ioos:station:wmo:42051:1,2004-08-03T11:30:00Z,29.6350,-93.6417,2.0,230.9483399,41.82430992,-99999.0,'11111222,11111222,99999999' 
TABS,ioos:station:wmo:42051:1,2004-08-03T12:00:00Z,29.6350,-93.6417,2.0,233.8348302,40.14503954,-99999.0,'11111222,11111222,99999999' 
TABS,ioos:station:wmo:42051:1,2004-08-03T12:30:00Z,29.6350,-93.6417,2.0,232.3872052,39.81534378,-99999.0,'11111222,11111222,99999999' 
TABS,ioos:station:wmo:42051:1,2004-08-03T13:00:00Z,29.6350,-93.6417,2.0,243.24735,34.21202274,-99999.0,'11111222,11111222,99999999' 
TABS,ioos:station:wmo:42051:1,2004-08-03T13:30:00Z,29.6350,-93.6417,2.0,243.7244253,38.89913624,-99999.0,'11111222,11111222,99999999' 
TABS,ioos:station:wmo:42051:1,2004-08-03T14:00:00Z,29.6350,-93.6417,2.0,260.1064138,44.81643114,-99999.0,'11111222,11111222,99999999' 
TABS,ioos:station:wmo:42051:1,2004-08-03T14:30:00Z,29.6350,-93.6417,2.0,264.8808945,43.15209033,-99999.0,'11111222,11111222,99999999' 
TABS,ioos:station:wmo:42051:1,2004-08-03T15:00:00Z,29.6350,-93.6417,2.0,262.3312749,43.16602831,-99999.0,'11111222,11111222,99999999' 
TABS,ioos:station:wmo:42051:1,2004-08-03T15:30:00Z,29.6350,-93.6417,2.0,266.8955693,41.92150403,-99999.0,'11111222,11111222,99999999' 
TABS,ioos:station:wmo:42051:1,2004-08-03T16:00:00Z,29.6350,-93.6417,2.0,268.4907543,43.29501126,-99999.0,'11111222,11111222,99999999' 
TABS,ioos:station:wmo:42051:1,2004-08-03T16:30:00Z,29.6350,-93.6417,2.0,272.2701389,41.66268594,-99999.0,'11111222,11111222,99999999' 
TABS,ioos:station:wmo:42051:1,2004-08-03T17:00:00Z,29.6350,-93.6417,2.0,275.4712429,41.8506356,-99999.0,'11111222,11111222,99999999' 
TABS,ioos:station:wmo:42051:1,2004-08-03T17:30:00Z,29.6350,-93.6417,2.0,278.4006577,39.29153217,-99999.0,'11111222,11111222,99999999' 
TABS,ioos:station:wmo:42051:1,2004-08-03T18:00:00Z,29.6350,-93.6417,2.0,282.7015074,41.11610025,-99999.0,'11111222,11111222,99999999' 
TABS,ioos:station:wmo:42051:1,2004-08-03T18:30:00Z,29.6350,-93.6417,2.0,286.2394706,43.41200295,-99999.0,'11111222,11111222,99999999' 
TABS,ioos:station:wmo:42051:1,2004-08-03T19:00:00Z,29.6350,-93.6417,2.0,288.696463,37.46705486,-99999.0,'11111222,11111222,99999999' 
TABS,ioos:station:wmo:42051:1,2004-08-03T19:30:00Z,29.6350,-93.6417,2.0,293.2896789,38.97573732,-99999.0,'11111222,11111222,99999999' 
TABS,ioos:station:wmo:42051:1,2004-08-03T20:00:00Z,29.6350,-93.6417,2.0,293.4347041,34.14652691,-99999.0,'11111222,11111222,99999999' 
TABS,ioos:station:wmo:42051:1,2004-08-03T20:30:00Z,29.6350,-93.6417,2.0,295.3302192,33.40120058,-99999.0,'11111222,11111222,99999999' 
TABS,ioos:station:wmo:42051:1,2004-08-03T21:00:00Z,29.6350,-93.6417,2.0,293.1575955,30.92135993,-99999.0,'11111222,11111222,99999999' 
TABS,ioos:station:wmo:42051:1,2004-08-03T21:30:00Z,29.6350,-93.6417,2.0,298.6000006,29.60184116,-99999.0,'11111222,11111222,99999999' 
TABS,ioos:station:wmo:42051:1,2004-08-03T22:00:00Z,29.6350,-93.6417,2.0,290.3489106,25.85338856,-99999.0,'11111222,11111222,99999999' 
TABS,ioos:station:wmo:42051:1,2004-08-03T22:30:00Z,29.6350,-93.6417,2.0,289.3682544,24.66587319,-99999.0,'11111222,11111222,99999999' 
TABS,ioos:station:wmo:42051:1,2004-08-03T23:00:00Z,29.6350,-93.6417,2.0,313.2215195,10.25091703,-99999.0,'11111222,11111222,99999999' 
TABS,ioos:station:wmo:42051:1,2004-08-03T23:30:00Z,29.6350,-93.6417,2.0,292.3541643,16.56479399,-99999.0,'11111222,11111222,99999999' 
TABS,ioos:station:wmo:42051:1,2004-08-04T00:00:00Z,29.6350,-93.6417,2.0,285.355417,11.0649808,-99999.0,'11111222,11111222,99999999' 
TABS,ioos:station:wmo:42051:1,2004-08-04T00:30:00Z,29.6350,-93.6417,2.0,284.0223041,9.698999948,-99999.0,'11133222,11111222,99999999' 
TABS,ioos:station:wmo:42051:1,2004-08-04T01:00:00Z,29.6350,-93.6417,2.0,246.9266475,11.38035588,-99999.0,'11111222,11111222,99999999' 
TABS,ioos:station:wmo:42051:1,2004-08-04T01:30:00Z,29.6350,-93.6417,2.0,239.8603271,7.74739311,-99999.0,'11133222,11111222,99999999' 
TABS,ioos:station:wmo:42051:1,2004-08-04T02:00:00Z,29.6350,-93.6417,2.0,231.4326154,13.50592463,-99999.0,'11111222,11111222,99999999' 
TABS,ioos:station:wmo:42051:1,2004-08-04T02:30:00Z,29.6350,-93.6417,2.0,204.3809929,6.807062509,-99999.0,'11133222,11111222,99999999' 
TABS,ioos:station:wmo:42051:1,2004-08-04T03:00:00Z,29.6350,-93.6417,2.0,178.7831674,10.83244201,-99999.0,'11111222,11111222,99999999' 
TABS,ioos:station:wmo:42051:1,2004-08-04T03:30:00Z,29.6350,-93.6417,2.0,193.1573015,9.489109547,-99999.0,'11133222,11111222,99999999' 
TABS,ioos:station:wmo:42051:1,2004-08-04T04:00:00Z,29.6350,-93.6417,2.0,190.664119,16.53560099,-99999.0,'11111222,11111222,99999999' 
TABS,ioos:station:wmo:42051:1,2004-08-04T04:30:00Z,29.6350,-93.6417,2.0,215.6276135,16.97798869,-99999.0,'11111222,11111222,99999999' 
TABS,ioos:station:wmo:42051:1,2004-08-04T05:00:00Z,29.6350,-93.6417,2.0,249.9540326,21.15134511,-99999.0,'11111222,11111222,99999999' 
TABS,ioos:station:wmo:42051:1,2004-08-04T05:30:00Z,29.6350,-93.6417,2.0,258.8904077,23.51054657,-99999.0,'11111222,11111222,99999999' 
TABS,ioos:station:wmo:42051:1,2004-08-04T06:00:00Z,29.6350,-93.6417,2.0,262.6705256,24.37918169,-99999.0,'11111222,11111222,99999999' 
TABS,ioos:station:wmo:42051:1,2004-08-04T06:30:00Z,29.6350,-93.6417,2.0,271.613645,25.93027767,-99999.0,'11111222,11111222,99999999' 
TABS,ioos:station:wmo:42051:1,2004-08-04T07:00:00Z,29.6350,-93.6417,2.0,272.9779795,29.06924492,-99999.0,'11111222,11111222,99999999' 
TABS,ioos:station:wmo:42051:1,2004-08-04T07:30:00Z,29.6350,-93.6417,2.0,283.2997507,25.64783812,-99999.0,'11111222,11111222,99999999' 
TABS,ioos:station:wmo:42051:1,2004-08-04T08:00:00Z,29.6350,-93.6417,2.0,276.7924506,26.46573823,-99999.0,'11111222,11111222,99999999' 
TABS,ioos:station:wmo:42051:1,2004-08-04T08:30:00Z,29.6350,-93.6417,2.0,276.4238763,27.35170927,-99999.0,'11111222,11111222,99999999' 
TABS,ioos:station:wmo:42051:1,2004-08-04T09:00:00Z,29.6350,-93.6417,2.0,266.9426666,24.56495471,-99999.0,'11111222,11111222,99999999' 
TABS,ioos:station:wmo:42051:1,2004-08-04T09:30:00Z,29.6350,-93.6417,2.0,268.5634988,25.1378957,-99999.0,'11111222,11111222,99999999' 
TABS,ioos:station:wmo:42051:1,2004-08-04T10:00:00Z,29.6350,-93.6417,2.0,267.5223577,22.2107564,-99999.0,'11111222,11111222,99999999' 
TABS,ioos:station:wmo:42051:1,2004-08-04T10:30:00Z,29.6350,-93.6417,2.0,245.6838997,21.08000237,-99999.0,'11111222,11111222,99999999' 
TABS,ioos:station:wmo:42051:1,2004-08-04T11:00:00Z,29.6350,-93.6417,2.0,243.4970716,24.60570666,-99999.0,'11111222,11111222,99999999' 
TABS,ioos:station:wmo:42051:1,2004-08-04T11:30:00Z,29.6350,-93.6417,2.0,246.476193,26.63331185,-99999.0,'11111222,11111222,99999999' 
TABS,ioos:station:wmo:42051:1,2004-08-04T12:00:00Z,29.6350,-93.6417,2.0,247.4663817,25.44233676,-99999.0,'11111222,11111222,99999999' 
TABS,ioos:station:wmo:42051:1,2004-08-04T12:30:00Z,29.6350,-93.6417,2.0,240.168664,28.88772231,-99999.0,'11111222,11111222,99999999' 
TABS,ioos:station:wmo:42051:1,2004-08-04T13:00:00Z,29.6350,-93.6417,2.0,237.9922613,30.22477957,-99999.0,'11111222,11111222,99999999' 
TABS,ioos:station:wmo:42051:1,2004-08-04T13:30:00Z,29.6350,-93.6417,2.0,236.8848497,30.1106443,-99999.0,'11111222,11111222,99999999' 
TABS,ioos:station:wmo:42051:1,2004-08-04T14:00:00Z,29.6350,-93.6417,2.0,237.7399325,27.22207376,-99999.0,'11111222,11111222,99999999' 
TABS,ioos:station:wmo:42051:1,2004-08-04T14:30:00Z,29.6350,-93.6417,2.0,234.2668304,30.03391416,-99999.0,'11111222,11111222,99999999' 
TABS,ioos:station:wmo:42051:1,2004-08-04T15:00:00Z,29.6350,-93.6417,2.0,238.5077801,30.51432451,-99999.0,'11111222,11111222,99999999' 
TABS,ioos:station:wmo:42051:1,2004-08-04T15:30:00Z,29.6350,-93.6417,2.0,246.643204,27.64536127,-99999.0,'11111222,11111222,99999999' 
TABS,ioos:station:wmo:42051:1,2004-08-04T16:00:00Z,29.6350,-93.6417,2.0,247.5077261,29.27699609,-99999.0,'11111222,11111222,99999999' 
TABS,ioos:station:wmo:42051:1,2004-08-04T16:30:00Z,29.6350,-93.6417,2.0,247.6020335,30.33868982,-99999.0,'11111222,11111222,99999999' 